Terminal Aerodrome Forecast
Issued by NWS

Home | Current Version | Previous Version | Text Only | Print | Product List | Glossary On
Versions: 1 2 3 4 5 6 7 8 9 10 11 12 13 14 15 16 17 18 19 20
000
FTUS43 KAPX 270520
TAFTVC
TAF
KTVC 270520Z 2706/2806 00000KT 6SM BR OVC015
     FM270900 00000KT 4SM -DZ BR OVC012
     FM271400 00000KT 1 1/2SM -RA BR OVC006
     FM271700 22007KT 3SM -RA BR OVC006 WS020/21040KT
     FM272200 27009KT P6SM VCSH OVC018
     FM280000 29009KT P6SM BKN028
     FM280400 29008KT P6SM BKN035=

USA.gov is the U.S. government's official web portal to all federal, state and local government web resources and services.